EN

Hourly Weather Janikowo

Today, 27 October, Tuesday

Time Temperature Precipitation Wind Pressure Humidity
00:00 +11°C° 0 mm 3 mps 745 mmHg 88%
01:00 +10°C° 0 mm 3 mps 746 mmHg 88%
02:00 +10°C° 0 mm 2 mps 746 mmHg 89%
03:00 +10°C° 0 mm 2 mps 747 mmHg 90%
04:00 +10°C° 0 mm 2 mps 747 mmHg 90%
05:00 +10°C° 0.2 mm 2 mps 747 mmHg 92%
06:00 +10°C° 0.2 mm 2 mps 748 mmHg 93%
07:00 +10°C° 0 mm 3 mps 748 mmHg 93%
08:00 +10°C° 0.2 mm 3 mps 748 mmHg 89%
09:00 +10°C° 0.2 mm 3 mps 749 mmHg 86%
10:00 +10°C° 0.2 mm 4 mps 749 mmHg 83%
11:00 +11°C° 0 mm 4 mps 749 mmHg 77%
12:00 +12°C° 0 mm 3 mps 749 mmHg 72%
13:00 +12°C° 0 mm 4 mps 750 mmHg 68%
14:00 +11°C° 0 mm 4 mps 749 mmHg 71%
15:00 +11°C° 0 mm 4 mps 749 mmHg 73%
16:00 +11°C° 0 mm 4 mps 749 mmHg 75%
17:00 +10°C° 0 mm 4 mps 750 mmHg 76%
18:00 +10°C° 0 mm 4 mps 750 mmHg 77%
19:00 +10°C° 0 mm 4 mps 751 mmHg 78%
20:00 +9°C° 0 mm 3 mps 751 mmHg 81%
21:00 +9°C° 0 mm 3 mps 751 mmHg 84%
22:00 +8°C° 0 mm 3 mps 751 mmHg 87%
23:00 +8°C° 0 mm 3 mps 751 mmHg 87%

Tomorrow, 28 October, Wednesday

Time Temperature Precipitation Wind Pressure Humidity
00:00 +8°C° 0 mm 3 mps 751 mmHg 87%
01:00 +8°C° 0 mm 3 mps 751 mmHg 87%
02:00 +7°C° 0 mm 3 mps 751 mmHg 86%
03:00 +7°C° 0 mm 3 mps 751 mmHg 86%
04:00 +7°C° 0 mm 3 mps 751 mmHg 85%
05:00 +7°C° 0 mm 3 mps 751 mmHg 85%
06:00 +7°C° 0 mm 3 mps 751 mmHg 85%
07:00 +6°C° 0 mm 4 mps 751 mmHg 85%
08:00 +7°C° 0 mm 4 mps 751 mmHg 78%
09:00 +8°C° 0 mm 5 mps 751 mmHg 72%
10:00 +10°C° 0 mm 5 mps 751 mmHg 66%
11:00 +12°C° 0 mm 5 mps 751 mmHg 62%
12:00 +13°C° 0 mm 5 mps 751 mmHg 59%
13:00 +13°C° 0 mm 5 mps 751 mmHg 55%
14:00 +13°C° 0 mm 5 mps 751 mmHg 58%
15:00 +12°C° 0 mm 4 mps 751 mmHg 61%
16:00 +11°C° 0 mm 3 mps 751 mmHg 64%
17:00 +11°C° 0 mm 4 mps 751 mmHg 67%
18:00 +10°C° 0 mm 4 mps 751 mmHg 71%
19:00 +10°C° 0 mm 4 mps 751 mmHg 75%
20:00 +8°C° 0 mm 4 mps 751 mmHg 76%
21:00 +8°C° 0 mm 4 mps 751 mmHg 77%
22:00 +8°C° 0 mm 5 mps 751 mmHg 79%
23:00 +8°C° 0 mm 5 mps 752 mmHg 81%

Day after tomorrow, 29 October, Thursday

Time Temperature Precipitation Wind Pressure Humidity
00:00 +8°C° 0 mm 5 mps 752 mmHg 83%
01:00 +8°C° 0 mm 4 mps 752 mmHg 85%
02:00 +8°C° 0 mm 4 mps 752 mmHg 85%
03:00 +8°C° 0 mm 4 mps 752 mmHg 85%
04:00 +7°C° 0 mm 4 mps 752 mmHg 85%
05:00 +7°C° 0 mm 4 mps 752 mmHg 86%
06:00 +7°C° 0 mm 4 mps 752 mmHg 86%
07:00 +6°C° 0 mm 4 mps 752 mmHg 86%
08:00 +7°C° 0 mm 4 mps 752 mmHg 82%
09:00 +8°C° 0 mm 5 mps 752 mmHg 78%
10:00 +9°C° 0 mm 5 mps 751 mmHg 75%
11:00 +10°C° 0.1 mm 5 mps 751 mmHg 74%
12:00 +10°C° 0.1 mm 5 mps 751 mmHg 73%
13:00 +12°C° 0.1 mm 5 mps 751 mmHg 72%
14:00 +10°C° 0.4 mm 5 mps 751 mmHg 76%
15:00 +9°C° 0.4 mm 5 mps 751 mmHg 80%
16:00 +10°C° 0.4 mm 4 mps 751 mmHg 83%
17:00 +8°C° 0 mm 4 mps 752 mmHg 84%
18:00 +7°C° 0 mm 4 mps 752 mmHg 84%
19:00 +7°C° 0 mm 4 mps 753 mmHg 84%
20:00 +6°C° 0 mm 4 mps 753 mmHg 85%
21:00 +6°C° 0 mm 4 mps 754 mmHg 85%
22:00 +6°C° 0 mm 4 mps 754 mmHg 86%
23:00 +6°C° 0 mm 4 mps 754 mmHg 87%

30 October, Friday

Time Temperature Precipitation Wind Pressure Humidity
00:00 +5°C° 0 mm 4 mps 755 mmHg 89%
01:00 +5°C° 0 mm 4 mps 755 mmHg 90%
02:00 +5°C° 0 mm 4 mps 755 mmHg 91%
03:00 +5°C° 0 mm 4 mps 755 mmHg 92%
04:00 +4°C° 0 mm 4 mps 756 mmHg 93%
05:00 +4°C° 0 mm 3 mps 756 mmHg 93%
06:00 +4°C° 0 mm 3 mps 756 mmHg 93%
07:00 +4°C° 0 mm 3 mps 755 mmHg 92%
08:00 +5°C° 0 mm 3 mps 755 mmHg 88%
09:00 +7°C° 0 mm 3 mps 755 mmHg 84%
10:00 +8°C° 0 mm 3 mps 755 mmHg 81%
11:00 +6°C° 0.7 mm 4 mps 754 mmHg 84%
12:00 +6°C° 0.7 mm 4 mps 754 mmHg 87%
13:00 +6°C° 0.7 mm 4 mps 753 mmHg 91%
14:00 +6°C° 1.6 mm 4 mps 753 mmHg 92%
15:00 +6°C° 1.6 mm 4 mps 753 mmHg 93%
16:00 +6°C° 1.6 mm 4 mps 753 mmHg 94%
17:00 +6°C° 1.2 mm 4 mps 753 mmHg 95%
18:00 +7°C° 1.2 mm 3 mps 753 mmHg 95%
19:00 +7°C° 1.2 mm 3 mps 753 mmHg 95%
20:00 +7°C° 0.2 mm 3 mps 754 mmHg 95%
21:00 +7°C° 0.2 mm 3 mps 754 mmHg 94%
22:00 +7°C° 0.2 mm 2 mps 755 mmHg 93%
23:00 +7°C° 0 mm 2 mps 755 mmHg 94%

31 October, Saturday

Time Temperature Precipitation Wind Pressure Humidity
00:00 +6°C° 0 mm 2 mps 756 mmHg 94%
01:00 +6°C° 0 mm 2 mps 756 mmHg 95%
02:00 +5°C° 0 mm 2 mps 757 mmHg 94%
03:00 +5°C° 0 mm 2 mps 757 mmHg 94%
04:00 +5°C° 0 mm 2 mps 758 mmHg 94%
05:00 +5°C° 0 mm 2 mps 758 mmHg 94%
06:00 +4°C° 0 mm 2 mps 759 mmHg 93%
07:00 +4°C° 0 mm 2 mps 759 mmHg 93%
08:00 +4°C° 0 mm 3 mps 760 mmHg 88%
09:00 +7°C° 0 mm 3 mps 760 mmHg 82%
10:00 +8°C° 0 mm 3 mps 761 mmHg 76%
11:00 +9°C° 0 mm 3 mps 761 mmHg 73%
12:00 +10°C° 0 mm 3 mps 761 mmHg 69%
13:00 +11°C° 0 mm 3 mps 761 mmHg 66%
14:00 +10°C° 0 mm 3 mps 761 mmHg 69%
15:00 +9°C° 0 mm 3 mps 761 mmHg 73%
16:00 +8°C° 0 mm 2 mps 761 mmHg 76%
17:00 +8°C° 0 mm 3 mps 761 mmHg 78%
18:00 +7°C° 0 mm 3 mps 761 mmHg 81%
19:00 +7°C° 0 mm 3 mps 761 mmHg 83%
20:00 +5°C° 0 mm 3 mps 761 mmHg 84%
21:00 +5°C° 0 mm 3 mps 761 mmHg 85%
22:00 +5°C° 0 mm 3 mps 761 mmHg 86%
23:00 +5°C° 0 mm 3 mps 761 mmHg 86%

1 November, Sunday

Time Temperature Precipitation Wind Pressure Humidity
00:00 +5°C° 0 mm 4 mps 761 mmHg 86%
01:00 +5°C° 0 mm 4 mps 761 mmHg 87%
02:00 +4°C° 0 mm 4 mps 761 mmHg 87%
03:00 +4°C° 0 mm 4 mps 760 mmHg 87%
04:00 +4°C° 0 mm 4 mps 760 mmHg 87%
05:00 +4°C° 0 mm 4 mps 760 mmHg 87%
06:00 +4°C° 0 mm 4 mps 760 mmHg 87%
07:00 +3°C° 0 mm 5 mps 760 mmHg 86%
08:00 +5°C° 0 mm 5 mps 759 mmHg 81%
09:00 +7°C° 0 mm 5 mps 759 mmHg 76%
10:00 +8°C° 0 mm 5 mps 759 mmHg 71%
11:00 +9°C° 0 mm 6 mps 759 mmHg 69%
12:00 +10°C° 0 mm 6 mps 758 mmHg 67%
13:00 +11°C° 0 mm 6 mps 758 mmHg 65%
14:00 +10°C° 0 mm 5 mps 758 mmHg 68%
15:00 +10°C° 0 mm 5 mps 757 mmHg 70%
16:00 +9°C° 0 mm 5 mps 757 mmHg 73%
17:00 +9°C° 0 mm 5 mps 757 mmHg 75%
18:00 +9°C° 0 mm 5 mps 757 mmHg 77%
19:00 +8°C° 0 mm 5 mps 757 mmHg 79%
20:00 +8°C° 0 mm 5 mps 757 mmHg 80%
21:00 +8°C° 0 mm 5 mps 757 mmHg 82%
22:00 +8°C° 0 mm 5 mps 757 mmHg 83%
23:00 +8°C° 0 mm 4 mps 757 mmHg 84%
Show more